Weather Roundup
Issued by NWS Chicago, IL

Home | Current Version | Previous Version | Text Only | Print | Product List | Glossary Off
Versions: 1 2 3 4 5 6 7 8 9 10 11 12 13 14 15 16 17 18 19 20 21 22 23 24 25 26 27 28 29 30 31 32 33 34 35 36 37 38 39 40 41 42 43 44 45 46 47 48 49 50

000
NZUS59 KLOT 231203
HRRLOT

CHICAGO AREA WEATHER ROUNDUP
NATIONAL WEATHER SERVICE CHICAGO/ROMEOVILLE IL
700 AM CDT SAT JUL 23 2016

NOTE: "FAIR" INDICATES FEW OR NO CLOUDS BELOW 12,000 FEET WITH NO
SIGNIFICANT WEATHER AND/OR OBSTRUCTIONS TO VISIBILITY.

* THESE STATIONS ARE NOT UNDER NWS QUALITY CONTROL. THEY ALSO MAY NOT
  REPORT WEATHER SUCH AS PRECIPITATION OR FOG.

ILZ005-006-012>014-019>023-231300-
NORTHEAST ILLINOIS

CITY           SKY/WX    TMP DP  RH WIND       PRES   REMARKS
OHARE          PTSUNNY   80  75  84 NW5       29.99R HX  85
6HR MIN TEMP:  77; 6HR MAX TEMP:  81;

MIDWAY         PTSUNNY   81  75  82 W5        29.99R HX  87
6HR MIN TEMP:  79; 6HR MAX TEMP:  83;

AURORA         PTSUNNY   76  74  93 CALM      30.00S FOG
6HR MIN TEMP:  72; 6HR MAX TEMP:  79;

LANSING*       CLOUDY    77  74  91 W3        30.00R
WAUKEGAN       SUNNY     78  76  93 SW3       29.99S HX  81
6HR MIN TEMP:  76; 6HR MAX TEMP:  78;

DUPAGE AIRPORT SUNNY     77  74  90 CALM      30.00S
6HR MIN TEMP:  75; 6HR MAX TEMP:  79;

WHEELING       CLOUDY    80  75  84 CALM      30.00R HX  85
6HR MIN TEMP:  78; 6HR MAX TEMP:  82;

MORRIS*        SUNNY     76  75  96 CALM      29.99S FOG
NORTHERLY ISL    N/A     80  73  79 W2          N/A  HX  84
$$

WIZ051-052-058>065-066-070>072-231300-
SOUTHEAST WISCONSIN

CITY           SKY/WX    TMP DP  RH WIND       PRES   REMARKS
MILWAUKEE      MOSUNNY   80  75  84 CALM      29.98F HX  85
6HR MIN TEMP:  74; 6HR MAX TEMP:  80;

KENOSHA*       PTSUNNY   77  75  93 CALM      29.99F FOG
RACINE*        SUNNY     78  75  90 NW3       30.00F HX  81
BURLINGTON     SUNNY     75  74  99 CALM      29.98F FOG
WAUKESHA       FOG       72  72 100 CALM      30.01S VSB 1/2
$$

INZ001>003-010>013-019-020-231300-
NORTHWEST INDIANA

CITY           SKY/WX    TMP DP  RH WIND       PRES   REMARKS
GARY*          PTSUNNY   79  79 100 CALM      30.01R HX  83
MICHIGAN CITY* NOT AVBL
RENSSELAER*    NOT AVBL
VALPARAISO     LGT RAIN  77  74  90 W3        30.01R
$$

LMZ740>746-231300-
SOUTHERN LAKE MICHIGAN

STATION/POSITION TIME  SKY/WX   TEMP WIND        PRES    VSBY
                                AIR  DIR/SP/G
                 (UTC)          (F)  (DEG/KT/KT) (MB)    (MI)
HARRISON CRIB    1100            81  280/  4/  5   N/A
BURNHAM HARBOR   1200            81  280/  6/  6   N/A
CALUMET HARBOR   1100            79  230/  3/  4 1014.8R
BURNS HARBOR     1100            78  220/  5/  6 1015.9R
MICHIGAN CITY    1100            76  190/  6/  6   N/A
$$

ABBREVIATIONS USED IN REMARKS
   TC - TEMPERATURE IN CELSIUS
  WCI - WIND CHILL INDEX
   HX - HEAT INDEX
  VSB - VISIBILITY
$$




USA.gov is the U.S. government's official web portal to all federal, state and local government web resources and services.